,,,PA_Meas_PMT16A,,PR_Meas_QMR101_102,,RH_Meas_QMH101,,SR_Meas_QMS101,,TA_Meas_QMH101,,GenWind,,GenWind,
date,time,status,PA,status,PR,status,RH,status,SR,status,TA,status,DirAvg,status,SpdAvg,
2014-06-18, 00:00:05,VALID,1009.97,VALID,0,VALID,101.72,VALID,0,VALID,25.7426,VALID,220,VALID,0,
2014-06-18, 00:01:05,VALID,1009.98,VALID,0,VALID,101.857,VALID,0,VALID,25.7426,VALID,220,VALID,0,
2014-06-18, 00:02:05,VALID,1009.98,VALID,0,VALID,101.972,VALID,0,VALID,25.7036,VALID,220,VALID,0,
2014-06-18, 00:03:05,VALID,1009.98,VALID,0,VALID,102.078,VALID,0,VALID,25.7036,VALID,220,VALID,0,
2014-06-18, 00:04:05,VALID,1009.98,VALID,0,VALID,102.315,VALID,0,VALID,25.6841,VALID,220,VALID,0,
2014-06-18, 00:05:05,VALID,1009.99,VALID,0,VALID,102.536,VALID,0,VALID,25.7036,VALID,220,VALID,0,
2014-06-18, 00:06:05,VALID,1009.97,VALID,0,VALID,102.757,VALID,0,VALID,25.7231,VALID,220,VALID,0,
2014-06-18, 00:07:05,VALID,1009.96,VALID,0,VALID,102.871,VALID,0.112112,VALID,25.7016,VALID,220,VALID,0,
2014-06-18, 00:08:05,VALID,1009.94,VALID,0,VALID,103.054,VALID,0.112112,VALID,25.6997,VALID,220,VALID,0,
2014-06-18, 00:09:05,VALID,1009.93,VALID,0,VALID,103.062,VALID,0.112112,VALID,25.6607,VALID,220,VALID,0,
2014-06-18, 00:10:05,VALID,1009.94,VALID,0,VALID,103.108,VALID,0.112112,VALID,25.6626,VALID,220,VALID,0,
2014-06-18, 00:11:05,VALID,1009.95,VALID,0,VALID,103.154,VALID,0,VALID,25.6431,VALID,220,VALID,0,
2014-06-18, 00:12:05,VALID,1009.97,VALID,0,VALID,103.123,VALID,0,VALID,25.6041,VALID,220,VALID,0,
2014-06-18, 00:13:05,VALID,1010.02,VALID,0,VALID,103.268,VALID,0.112112,VALID,25.6236,VALID,220,VALID,0,
2014-06-18, 00:14:05,VALID,1009.99,VALID,0,VALID,103.367,VALID,0,VALID,25.5827,VALID,220,VALID,0,
2014-06-18, 00:15:05,VALID,1010.01,VALID,0,VALID,103.565,VALID,0,VALID,25.6041,VALID,220,VALID,0,
2014-06-18, 00:16:05,VALID,1010.01,VALID,0,VALID,103.726,VALID,0,VALID,25.6236,VALID,220,VALID,0,
2014-06-18, 00:17:05,VALID,1010,VALID,0,VALID,103.886,VALID,0.112112,VALID,25.6236,VALID,220,VALID,0,
2014-06-18, 00:18:05,VALID,1009.99,VALID,0,VALID,104,VALID,0,VALID,25.6236,VALID,220,VALID,0,
2014-06-18, 00:19:05,VALID,1009.97,VALID,0,VALID,104,VALID,0,VALID,25.6022,VALID,220,VALID,0,
2014-06-18, 00:20:05,VALID,1009.98,VALID,0,VALID,104,VALID,0,VALID,25.6041,VALID,220,VALID,0,
2014-06-18, 00:21:05,VALID,1010,VALID,0,VALID,104,VALID,0,VALID,25.5437,VALID,220,VALID,0,
2014-06-18, 00:22:05,VALID,1009.99,VALID,0,VALID,104,VALID,0,VALID,25.5261,VALID,220,VALID,0,
2014-06-18, 00:23:05,VALID,1009.98,VALID,0,VALID,104,VALID,0,VALID,25.4852,VALID,220,VALID,0,
2014-06-18, 00:24:05,VALID,1009.95,VALID,0,VALID,104,VALID,0,VALID,25.4871,VALID,220,VALID,0,
2014-06-18, 00:25:05,VALID,1009.99,VALID,0,VALID,104,VALID,0,VALID,25.4677,VALID,220,VALID,0,
2014-06-18, 00:26:05,VALID,1009.98,VALID,0,VALID,104,VALID,0,VALID,25.4267,VALID,220,VALID,0,
2014-06-18, 00:27:05,VALID,1009.95,VALID,0,VALID,104,VALID,0,VALID,25.4287,VALID,220,VALID,0,
2014-06-18, 00:28:05,VALID,1009.95,VALID,0,VALID,104,VALID,0,VALID,25.4482,VALID,220,VALID,0,
2014-06-18, 00:29:05,VALID,1009.9,VALID,0,VALID,104,VALID,0,VALID,25.4287,VALID,220,VALID,0,
2014-06-18, 00:30:05,VALID,1009.93,VALID,0,VALID,104,VALID,0,VALID,25.4482,VALID,220,VALID,0,
2014-06-18, 00:31:05,VALID,1009.93,VALID,0,VALID,104,VALID,0,VALID,25.4287,VALID,220,VALID,0,
2014-06-18, 00:32:05,VALID,1009.92,VALID,0,VALID,104,VALID,0,VALID,25.4092,VALID,220,VALID,0,
2014-06-18, 00:33:05,VALID,1009.93,VALID,0,VALID,104,VALID,0,VALID,25.3877,VALID,220,VALID,0,
2014-06-18, 00:34:05,VALID,1009.94,VALID,0,VALID,104,VALID,0,VALID,25.3897,VALID,220,VALID,0,
2014-06-18, 00:35:05,VALID,1009.93,VALID,0,VALID,104,VALID,0,VALID,25.3702,VALID,220,VALID,0,
2014-06-18, 00:36:05,VALID,1009.93,VALID,0,VALID,104,VALID,0,VALID,25.3507,VALID,220,VALID,0,
2014-06-18, 00:37:05,VALID,1009.92,VALID,0,VALID,104,VALID,0,VALID,25.3312,VALID,220,VALID,0,
2014-06-18, 00:38:05,VALID,1009.9,VALID,0,VALID,104,VALID,0,VALID,25.3117,VALID,220,VALID,0,
2014-06-18, 00:39:05,VALID,1009.89,VALID,0,VALID,104,VALID,0.112112,VALID,25.2922,VALID,220,VALID,0,
2014-06-18, 00:40:05,VALID,1009.88,VALID,0,VALID,104,VALID,0.112112,VALID,25.2727,VALID,220,VALID,0,
2014-06-18, 00:41:05,VALID,1009.88,VALID,0,VALID,104,VALID,0,VALID,25.2727,VALID,220,VALID,0,
2014-06-18, 00:42:05,VALID,1009.87,VALID,0,VALID,104,VALID,0,VALID,25.2337,VALID,220,VALID,0,
2014-06-18, 00:43:05,VALID,1009.86,VALID,0,VALID,104,VALID,0,VALID,25.2532,VALID,220,VALID,0,
2014-06-18, 00:44:05,VALID,1009.89,VALID,0,VALID,104,VALID,0,VALID,25.1928,VALID,220,VALID,0,
2014-06-18, 00:45:05,VALID,1009.88,VALID,0,VALID,104,VALID,0,VALID,25.1947,VALID,220,VALID,0,
2014-06-18, 00:46:05,VALID,1009.86,VALID,0,VALID,104,VALID,0,VALID,25.1752,VALID,220,VALID,0,
2014-06-18, 00:47:05,VALID,1009.87,VALID,0,VALID,104,VALID,0,VALID,25.1343,VALID,220,VALID,0,
2014-06-18, 00:48:05,VALID,1009.82,VALID,0,VALID,104,VALID,0,VALID,25.1362,VALID,220,VALID,0,
2014-06-18, 00:49:05,VALID,1009.83,VALID,0,VALID,104,VALID,0,VALID,25.1167,VALID,220,VALID,0,
2014-06-18, 00:50:05,VALID,1009.79,VALID,0,VALID,104,VALID,0,VALID,25.1167,VALID,220,VALID,0,
2014-06-18, 00:51:05,VALID,1009.78,VALID,0,VALID,104,VALID,0,VALID,25.0759,VALID,220,VALID,0,
2014-06-18, 00:52:04,VALID,1009.79,VALID,0,VALID,104,VALID,0.112112,VALID,25.0973,VALID,220,VALID,0,
2014-06-18, 00:53:04,VALID,1009.75,VALID,0,VALID,104,VALID,0.112112,VALID,25.0759,VALID,220,VALID,0,
2014-06-18, 00:54:04,VALID,1009.78,VALID,0,VALID,104,VALID,0,VALID,25.0778,VALID,220,VALID,0,
2014-06-18, 00:55:04,VALID,1009.77,VALID,0,VALID,104,VALID,0,VALID,25.0778,VALID,220,VALID,0,
2014-06-18, 00:56:04,VALID,1009.78,VALID,0,VALID,104,VALID,0,VALID,25.0583,VALID,220,VALID,0,
2014-06-18, 00:57:04,VALID,1009.76,VALID,0,VALID,104,VALID,0.112112,VALID,25.0388,VALID,220,VALID,0,
2014-06-18, 00:58:04,VALID,1009.8,VALID,0,VALID,104,VALID,0,VALID,25.0193,VALID,220,VALID,0,
2014-06-18, 00:59:04,VALID,1009.78,VALID,0,VALID,104,VALID,0.112112,VALID,24.9784,VALID,220,VALID,0,
2014-06-18, 01:00:04,VALID,1009.79,VALID,0,VALID,104,VALID,0.112112,VALID,24.9998,VALID,220,VALID,0,
2014-06-18, 01:01:04,VALID,1009.76,VALID,0,VALID,104,VALID,0,VALID,24.9803,VALID,220,VALID,0,
2014-06-18, 01:02:04,VALID,1009.76,VALID,0,VALID,104,VALID,0.112112,VALID,24.9998,VALID,220,VALID,0,
2014-06-18, 01:03:04,VALID,1009.72,VALID,0,VALID,104,VALID,0.112112,VALID,25.0193,VALID,220,VALID,0,
2014-06-18, 01:04:04,VALID,1009.7,VALID,0,VALID,104,VALID,0,VALID,25.0193,VALID,220,VALID,0,
2014-06-18, 01:05:04,VALID,1009.68,VALID,0,VALID,104,VALID,0.112112,VALID,24.9979,VALID,220,VALID,0,
2014-06-18, 01:06:04,VALID,1009.7,VALID,0,VALID,104,VALID,0,VALID,25.0388,VALID,220,VALID,0,
2014-06-18, 01:07:04,VALID,1009.72,VALID,0,VALID,104,VALID,0,VALID,25.0583,VALID,220,VALID,0,
2014-06-18, 01:08:04,VALID,1009.72,VALID,0,VALID,104,VALID,0,VALID,25.0973,VALID,220,VALID,0,
2014-06-18, 01:09:04,VALID,1009.69,VALID,0,VALID,104,VALID,0.112112,VALID,25.1362,VALID,220,VALID,0,
2014-06-18, 01:10:04,VALID,1009.7,VALID,0,VALID,104,VALID,0,VALID,25.1167,VALID,220,VALID,0,
2014-06-18, 01:11:04,VALID,1009.69,VALID,0,VALID,104,VALID,0,VALID,25.1381,VALID,220,VALID,0,
2014-06-18, 01:12:04,VALID,1009.7,VALID,0,VALID,104,VALID,0,VALID,25.1576,VALID,220,VALID,0,
2014-06-18, 01:13:04,VALID,1009.7,VALID,0,VALID,104,VALID,0,VALID,25.1771,VALID,220,VALID,0,
2014-06-18, 01:14:04,VALID,1009.76,VALID,0,VALID,104,VALID,0,VALID,25.1771,VALID,220,VALID,0,
2014-06-18, 01:15:04,VALID,1009.76,VALID,0,VALID,104,VALID,0,VALID,25.1771,VALID,220,VALID,0,
2014-06-18, 01:16:04,VALID,1009.77,VALID,0,VALID,104,VALID,0,VALID,25.1966,VALID,220,VALID,0,
2014-06-18, 01:17:04,VALID,1009.72,VALID,0,VALID,104,VALID,0,VALID,25.1966,VALID,220,VALID,0,
2014-06-18, 01:18:04,VALID,1009.73,VALID,0,VALID,104,VALID,0,VALID,25.1947,VALID,220,VALID,0,
2014-06-18, 01:19:04,VALID,1009.68,VALID,0,VALID,104,VALID,0,VALID,25.2161,VALID,220,VALID,0,
2014-06-18, 01:20:04,VALID,1009.66,VALID,0,VALID,104,VALID,0,VALID,25.1947,VALID,220,VALID,0,
2014-06-18, 01:21:04,VALID,1009.66,VALID,0,VALID,104,VALID,0,VALID,25.1947,VALID,220,VALID,0,
2014-06-18, 01:22:04,VALID,1009.65,VALID,0,VALID,104,VALID,0,VALID,25.1947,VALID,220,VALID,0,
2014-06-18, 01:23:04,VALID,1009.67,VALID,0,VALID,104,VALID,0,VALID,25.1966,VALID,220,VALID,0,
2014-06-18, 01:24:04,VALID,1009.68,VALID,0,VALID,104,VALID,0,VALID,25.2142,VALID,220,VALID,0,
2014-06-18, 01:25:04,VALID,1009.66,VALID,0,VALID,104,VALID,0.112112,VALID,25.2337,VALID,220,VALID,0,
2014-06-18, 01:26:04,VALID,1009.64,VALID,0,VALID,104,VALID,0,VALID,25.2337,VALID,220,VALID,0,
2014-06-18, 01:27:04,VALID,1009.62,VALID,0,VALID,104,VALID,0,VALID,25.2337,VALID,220,VALID,0,
2014-06-18, 01:28:04,VALID,1009.63,VALID,0,VALID,104,VALID,0.112112,VALID,25.1928,VALID,220,VALID,0,
2014-06-18, 01:29:04,VALID,1009.6,VALID,0,VALID,104,VALID,0,VALID,25.2142,VALID,220,VALID,0,
2014-06-18, 01:30:04,VALID,1009.63,VALID,0,VALID,104,VALID,0,VALID,25.1928,VALID,220,VALID,0,
2014-06-18, 01:31:04,VALID,1009.68,VALID,0,VALID,104,VALID,0.112112,VALID,25.1928,VALID,220,VALID,0,
2014-06-18, 01:32:04,VALID,1009.67,VALID,0,VALID,104,VALID,0.112112,VALID,25.2142,VALID,220,VALID,0,
2014-06-18, 01:33:04,VALID,1009.64,VALID,0,VALID,104,VALID,0,VALID,25.1947,VALID,220,VALID,0,
2014-06-18, 01:34:04,VALID,1009.61,VALID,0,VALID,104,VALID,0.112112,VALID,25.1752,VALID,220,VALID,0,
2014-06-18, 01:35:04,VALID,1009.54,VALID,0,VALID,104,VALID,0.112112,VALID,25.1538,VALID,220,VALID,0,
2014-06-18, 01:36:04,VALID,1009.58,VALID,0,VALID,104,VALID,0,VALID,25.1752,VALID,220,VALID,0,
2014-06-18, 01:37:04,VALID,1009.56,VALID,0,VALID,104,VALID,0.112112,VALID,25.1557,VALID,220,VALID,0,
2014-06-18, 01:38:04,VALID,1009.56,VALID,0,VALID,104,VALID,0,VALID,25.1362,VALID,220,VALID,0,
2014-06-18, 01:39:04,VALID,1009.57,VALID,0,VALID,104,VALID,0.112112,VALID,25.1362,VALID,220,VALID,0,
2014-06-18, 01:40:04,VALID,1009.57,VALID,0,VALID,104,VALID,0.112112,VALID,25.1557,VALID,220,VALID,0,
2014-06-18, 01:41:04,VALID,1009.55,VALID,0,VALID,104,VALID,0.112112,VALID,25.0954,VALID,220,VALID,0,
2014-06-18, 01:42:04,VALID,1009.51,VALID,0,VALID,104,VALID,0,VALID,25.0759,VALID,220,VALID,0,
2014-06-18, 01:43:04,VALID,1009.51,VALID,0,VALID,104,VALID,0.112112,VALID,25.0954,VALID,220,VALID,0,
2014-06-18, 01:44:04,VALID,1009.48,VALID,0,VALID,104,VALID,0,VALID,25.0973,VALID,220,VALID,0,
2014-06-18, 01:45:04,VALID,1009.45,VALID,0,VALID,104,VALID,0,VALID,25.0564,VALID,220,VALID,0,
2014-06-18, 01:46:04,VALID,1009.44,VALID,0,VALID,104,VALID,0.112112,VALID,25.0778,VALID,220,VALID,0,
2014-06-18, 01:47:04,VALID,1009.45,VALID,0,VALID,104,VALID,0.112112,VALID,25.0564,VALID,220,VALID,0,
2014-06-18, 01:48:04,VALID,1009.44,VALID,0,VALID,104,VALID,0.112112,VALID,25.0583,VALID,220,VALID,0,
2014-06-18, 01:49:04,VALID,1009.44,VALID,0,VALID,104,VALID,0,VALID,25.0388,VALID,220,VALID,0,
2014-06-18, 01:50:04,VALID,1009.44,VALID,0,VALID,104,VALID,0.112112,VALID,25.0388,VALID,220,VALID,0,
2014-06-18, 01:51:04,VALID,1009.42,VALID,0,VALID,104,VALID,0,VALID,25.0193,VALID,220,VALID,0,
2014-06-18, 01:52:04,VALID,1009.42,VALID,0,VALID,104,VALID,0,VALID,24.9803,VALID,220,VALID,0,
2014-06-18, 01:53:04,VALID,1009.42,VALID,0,VALID,104,VALID,0.112112,VALID,24.9608,VALID,220,VALID,0,
2014-06-18, 01:54:04,VALID,1009.41,VALID,0,VALID,104,VALID,0,VALID,24.9608,VALID,220,VALID,0,
2014-06-18, 01:55:04,VALID,1009.41,VALID,0,VALID,104,VALID,0.112112,VALID,24.9998,VALID,220,VALID,0,
2014-06-18, 01:56:04,VALID,1009.4,VALID,0,VALID,104,VALID,0.112112,VALID,24.9784,VALID,220,VALID,0,
2014-06-18, 01:57:04,VALID,1009.39,VALID,0,VALID,104,VALID,0,VALID,24.9589,VALID,220,VALID,0,
2014-06-18, 01:58:04,VALID,1009.41,VALID,0,VALID,104,VALID,0.112112,VALID,24.9394,VALID,220,VALID,0,
2014-06-18, 01:59:04,VALID,1009.39,VALID,0,VALID,104,VALID,0.112112,VALID,24.9803,VALID,220,VALID,0,
2014-06-18, 02:00:04,VALID,1009.38,VALID,0,VALID,104,VALID,0.112112,VALID,24.9998,VALID,220,VALID,0,
2014-06-18, 02:01:04,VALID,1009.37,VALID,0,VALID,104,VALID,0.112112,VALID,24.9998,VALID,220,VALID,0,
2014-06-18, 02:02:04,VALID,1009.33,VALID,0,VALID,104,VALID,0.112112,VALID,25.0193,VALID,220,VALID,0,
2014-06-18, 02:03:04,VALID,1009.29,VALID,0,VALID,104,VALID,0.112112,VALID,24.9979,VALID,220,VALID,0,
2014-06-18, 02:04:04,VALID,1009.24,VALID,0,VALID,104,VALID,0,VALID,24.9979,VALID,220,VALID,0,
2014-06-18, 02:05:04,VALID,1009.24,VALID,0,VALID,104,VALID,0,VALID,24.9803,VALID,220,VALID,0,
2014-06-18, 02:06:04,VALID,1009.27,VALID,0,VALID,104,VALID,0.112112,VALID,24.9394,VALID,220,VALID,0,
2014-06-18, 02:07:04,VALID,1009.26,VALID,0,VALID,104,VALID,0,VALID,24.9394,VALID,220,VALID,0,
2014-06-18, 02:08:04,VALID,1009.26,VALID,0,VALID,104,VALID,0,VALID,24.9394,VALID,220,VALID,0,
2014-06-18, 02:09:04,VALID,1009.23,VALID,0,VALID,104,VALID,0,VALID,24.9608,VALID,220,VALID,0,
2014-06-18, 02:10:04,VALID,1009.19,VALID,0,VALID,104,VALID,0,VALID,24.9627,VALID,220,VALID,0,
2014-06-18, 02:11:04,VALID,1009.12,VALID,0,VALID,104,VALID,0,VALID,24.9432,VALID,220,VALID,0,
2014-06-18, 02:12:04,VALID,1009.08,VALID,0,VALID,104,VALID,0,VALID,24.9432,VALID,220,VALID,0,
2014-06-18, 02:13:04,VALID,1009.08,VALID,0,VALID,104,VALID,0,VALID,24.9237,VALID,220,VALID,0,
2014-06-18, 02:14:04,VALID,1009.03,VALID,0,VALID,104,VALID,0,VALID,24.9432,VALID,220,VALID,0,
2014-06-18, 02:15:04,VALID,1009.03,VALID,0,VALID,104,VALID,0,VALID,24.9023,VALID,220,VALID,0,
2014-06-18, 02:16:04,VALID,1008.99,VALID,0,VALID,104,VALID,0,VALID,24.8828,VALID,220,VALID,0,
2014-06-18, 02:17:04,VALID,1008.94,VALID,0,VALID,104,VALID,0,VALID,24.8828,VALID,220,VALID,0,
2014-06-18, 02:18:04,VALID,1008.92,VALID,0,VALID,104,VALID,0,VALID,24.8633,VALID,220,VALID,0,
2014-06-18, 02:19:04,VALID,1008.91,VALID,0,VALID,104,VALID,0,VALID,24.8633,VALID,220,VALID,0,
2014-06-18, 02:20:04,VALID,1008.91,VALID,0,VALID,104,VALID,0,VALID,24.8652,VALID,220,VALID,0,
2014-06-18, 02:21:04,VALID,1008.91,VALID,0,VALID,104,VALID,0,VALID,24.8828,VALID,220,VALID,0,
2014-06-18, 02:22:04,VALID,1008.92,VALID,0,VALID,104,VALID,0,VALID,24.8847,VALID,220,VALID,0,
2014-06-18, 02:23:04,VALID,1008.89,VALID,0,VALID,104,VALID,0,VALID,24.8847,VALID,220,VALID,0,
2014-06-18, 02:24:04,VALID,1008.88,VALID,0,VALID,104,VALID,0,VALID,24.8652,VALID,220,VALID,0,
2014-06-18, 02:25:04,VALID,1008.85,VALID,0,VALID,104,VALID,0,VALID,24.8438,VALID,220,VALID,0,
2014-06-18, 02:26:04,VALID,1008.85,VALID,0,VALID,104,VALID,0,VALID,24.8438,VALID,220,VALID,0,
2014-06-18, 02:27:04,VALID,1008.82,VALID,0,VALID,104,VALID,0,VALID,24.8049,VALID,220,VALID,0,
2014-06-18, 02:28:04,VALID,1008.86,VALID,0,VALID,104,VALID,0,VALID,24.7854,VALID,220,VALID,0,
2014-06-18, 02:29:04,VALID,1008.85,VALID,0,VALID,104,VALID,0,VALID,24.7872,VALID,220,VALID,0,
2014-06-18, 02:30:04,VALID,1008.85,VALID,0,VALID,104,VALID,0,VALID,24.7464,VALID,220,VALID,0,
2014-06-18, 02:31:04,VALID,1008.88,VALID,0,VALID,104,VALID,0,VALID,24.7872,VALID,220,VALID,0,
2014-06-18, 02:32:04,VALID,1008.84,VALID,0,VALID,104,VALID,0,VALID,24.7678,VALID,220,VALID,0,
2014-06-18, 02:33:04,VALID,1008.83,VALID,0,VALID,104,VALID,0,VALID,24.7659,VALID,220,VALID,0,
2014-06-18, 02:34:04,VALID,1008.87,VALID,0,VALID,104,VALID,0,VALID,24.8067,VALID,220,VALID,0,
2014-06-18, 02:35:04,VALID,1008.86,VALID,0,VALID,104,VALID,0,VALID,24.8262,VALID,220,VALID,0,
2014-06-18, 02:36:04,VALID,1008.84,VALID,0,VALID,104,VALID,0,VALID,24.8847,VALID,220,VALID,0,
2014-06-18, 02:37:04,VALID,1008.89,VALID,0,VALID,104,VALID,0,VALID,24.8828,VALID,220,VALID,0,
2014-06-18, 02:38:04,VALID,1008.9,VALID,0,VALID,104,VALID,0,VALID,24.8438,VALID,220,VALID,0,
2014-06-18, 02:39:04,VALID,1008.87,VALID,0,VALID,104,VALID,0,VALID,24.8244,VALID,220,VALID,0,
2014-06-18, 02:40:04,VALID,1008.87,VALID,0,VALID,104,VALID,0.112112,VALID,24.803,VALID,220,VALID,0,
2014-06-18, 02:41:04,VALID,1008.85,VALID,0,VALID,104,VALID,0,VALID,24.8049,VALID,220,VALID,0,
2014-06-18, 02:42:04,VALID,1008.85,VALID,0,VALID,104,VALID,0,VALID,24.764,VALID,220,VALID,0,
2014-06-18, 02:43:04,VALID,1008.86,VALID,0,VALID,104,VALID,0,VALID,24.7464,VALID,220,VALID,0,
2014-06-18, 02:44:04,VALID,1008.86,VALID,0,VALID,104,VALID,0.112112,VALID,24.7074,VALID,220,VALID,0,
2014-06-18, 02:45:04,VALID,1008.85,VALID,0,VALID,104,VALID,0,VALID,24.6879,VALID,220,VALID,0,
2014-06-18, 02:46:04,VALID,1008.83,VALID,0,VALID,104,VALID,0,VALID,24.7659,VALID,220,VALID,0,
2014-06-18, 02:47:04,VALID,1008.84,VALID,0,VALID,104,VALID,0,VALID,24.7854,VALID,220,VALID,0,
2014-06-18, 02:48:04,VALID,1008.83,VALID,0,VALID,104,VALID,0,VALID,24.8049,VALID,220,VALID,0,
2014-06-18, 02:49:04,VALID,1008.83,VALID,0,VALID,104,VALID,0,VALID,24.8049,VALID,220,VALID,0,
2014-06-18, 02:50:04,VALID,1008.8,VALID,0,INVALID,109.003,VALID,0,VALID,24.7854,VALID,220,VALID,0,
2014-06-18, 02:51:04,VALID,1008.82,VALID,0,INVALID,109.041,VALID,0,VALID,24.7854,VALID,220,VALID,0,
2014-06-18, 02:52:04,VALID,1008.8,VALID,0,INVALID,109.056,VALID,0.112112,VALID,24.7445,VALID,220,VALID,0,
2014-06-18, 02:53:04,VALID,1008.78,VALID,0,INVALID,109.132,VALID,0,VALID,24.7464,VALID,220,VALID,0,
2014-06-18, 02:54:04,VALID,1008.8,VALID,0,INVALID,109.201,VALID,0.112112,VALID,24.7074,VALID,220,VALID,0,
2014-06-18, 02:55:04,VALID,1008.8,VALID,0,INVALID,109.254,VALID,0,VALID,24.6684,VALID,220,VALID,0,
2014-06-18, 02:56:04,VALID,1008.8,VALID,0,INVALID,109.239,VALID,0,VALID,24.6879,VALID,220,VALID,0,
2014-06-18, 02:57:04,VALID,1008.82,VALID,0,INVALID,109.277,VALID,0,VALID,24.6684,VALID,220,VALID,0,
2014-06-18, 02:58:04,VALID,1008.82,VALID,0,INVALID,109.239,VALID,0,VALID,24.6471,VALID,220,VALID,0,
2014-06-18, 02:59:04,VALID,1008.83,VALID,0,INVALID,109.224,VALID,0.112112,VALID,24.6879,VALID,220,VALID,0,
2014-06-18, 03:00:04,VALID,1008.82,VALID,0,INVALID,109.201,VALID,0,VALID,24.7074,VALID,220,VALID,0,
2014-06-18, 03:01:04,VALID,1008.85,VALID,0,INVALID,109.231,VALID,0,VALID,24.6879,VALID,220,VALID,0,
2014-06-18, 03:02:04,VALID,1008.83,VALID,0,INVALID,109.216,VALID,0,VALID,24.686,VALID,220,VALID,0,
2014-06-18, 03:03:04,VALID,1008.83,VALID,0,INVALID,109.147,VALID,0.112112,VALID,24.7055,VALID,220,VALID,0,
2014-06-18, 03:04:04,VALID,1008.84,VALID,0,INVALID,109.155,VALID,0.112112,VALID,24.725,VALID,220,VALID,0,
2014-06-18, 03:05:04,VALID,1008.84,VALID,0,INVALID,109.056,VALID,0,VALID,24.7854,VALID,220,VALID,0,
2014-06-18, 03:06:04,VALID,1008.81,VALID,0,INVALID,109.071,VALID,0.112112,VALID,24.7835,VALID,220,VALID,0,
2014-06-18, 03:07:04,VALID,1008.82,VALID,0,INVALID,109.117,VALID,0.112112,VALID,24.764,VALID,220,VALID,0,
2014-06-18, 03:08:04,VALID,1008.81,VALID,0,INVALID,109.041,VALID,0.112112,VALID,24.803,VALID,220,VALID,0,
2014-06-18, 03:09:04,VALID,1008.8,VALID,0,INVALID,109.033,VALID,0.112112,VALID,24.842,VALID,220,VALID,0,
2014-06-18, 03:10:04,VALID,1008.8,VALID,0,VALID,104,VALID,0,VALID,24.8633,VALID,220,VALID,0,
2014-06-18, 03:11:04,VALID,1008.81,VALID,0,INVALID,109.01,VALID,0,VALID,24.8847,VALID,220,VALID,0,
2014-06-18, 03:12:04,VALID,1008.77,VALID,0,INVALID,109.048,VALID,0,VALID,24.8438,VALID,220,VALID,0,
2014-06-18, 03:13:04,VALID,1008.79,VALID,0,INVALID,109.064,VALID,0,VALID,24.8262,VALID,220,VALID,0,
2014-06-18, 03:14:04,VALID,1008.78,VALID,0,INVALID,109.132,VALID,0,VALID,24.7872,VALID,220,VALID,0,
2014-06-18, 03:15:04,VALID,1008.8,VALID,0,INVALID,109.178,VALID,0,VALID,24.7678,VALID,220,VALID,0,
2014-06-18, 03:16:04,VALID,1008.78,VALID,0,INVALID,109.193,VALID,0,VALID,24.7288,VALID,220,VALID,0,
2014-06-18, 03:17:04,VALID,1008.77,VALID,0,INVALID,109.239,VALID,0,VALID,24.7269,VALID,220,VALID,0,
2014-06-18, 03:18:04,VALID,1008.77,VALID,0,INVALID,109.292,VALID,0,VALID,24.6898,VALID,220,VALID,0,
2014-06-18, 03:19:04,VALID,1008.78,VALID,0,INVALID,109.308,VALID,0,VALID,24.6703,VALID,220,VALID,0,
2014-06-18, 03:20:04,VALID,1008.76,VALID,0,INVALID,109.315,VALID,0,VALID,24.6294,VALID,220,VALID,0,
2014-06-18, 03:21:04,VALID,1008.77,VALID,0,INVALID,109.285,VALID,0,VALID,24.6099,VALID,220,VALID,0,
2014-06-18, 03:22:04,VALID,1008.8,VALID,0,INVALID,109.285,VALID,0,VALID,24.6508,VALID,220,VALID,0,
2014-06-18, 03:23:04,VALID,1008.84,VALID,0,INVALID,109.216,VALID,0,VALID,24.6898,VALID,220,VALID,0,
2014-06-18, 03:24:04,VALID,1008.83,VALID,0,INVALID,109.155,VALID,0,VALID,24.7288,VALID,220,VALID,0,
2014-06-18, 03:25:04,VALID,1008.84,VALID,0,INVALID,109.193,VALID,0,VALID,24.7269,VALID,220,VALID,0,
2014-06-18, 03:26:04,VALID,1008.83,VALID,0,INVALID,109.193,VALID,0,VALID,24.7483,VALID,220,VALID,0,
2014-06-18, 03:27:04,VALID,1008.82,VALID,0,INVALID,109.277,VALID,0,VALID,24.6898,VALID,220,VALID,0,
2014-06-18, 03:28:04,VALID,1008.84,VALID,0,INVALID,109.277,VALID,0,VALID,24.6489,VALID,220,VALID,0,
2014-06-18, 03:29:04,VALID,1008.83,VALID,0,INVALID,109.292,VALID,0,VALID,24.6294,VALID,220,VALID,0,
2014-06-18, 03:30:04,VALID,1008.82,VALID,0,INVALID,109.315,VALID,0,VALID,24.6099,VALID,220,VALID,0,
2014-06-18, 03:31:04,VALID,1008.83,VALID,0,INVALID,109.323,VALID,0,VALID,24.5905,VALID,220,VALID,0,
2014-06-18, 03:32:04,VALID,1008.85,VALID,0,INVALID,109.269,VALID,0,VALID,24.6099,VALID,220,VALID,0,
2014-06-18, 03:33:04,VALID,1008.88,VALID,0,INVALID,109.231,VALID,0,VALID,24.6294,VALID,220,VALID,0,
2014-06-18, 03:34:04,VALID,1008.86,VALID,0,INVALID,109.155,VALID,0,VALID,24.6489,VALID,220,VALID,0,
2014-06-18, 03:35:04,VALID,1008.88,VALID,0,INVALID,109.208,VALID,0,VALID,24.6684,VALID,220,VALID,0,
2014-06-18, 03:36:04,VALID,1008.87,VALID,0,INVALID,109.239,VALID,0,VALID,24.6703,VALID,220,VALID,0,
2014-06-18, 03:37:04,VALID,1008.91,VALID,0,INVALID,109.292,VALID,0,VALID,24.6294,VALID,220,VALID,0,
2014-06-18, 03:38:04,VALID,1008.92,VALID,0,INVALID,109.277,VALID,0,VALID,24.5905,VALID,220,VALID,0,
2014-06-18, 03:39:04,VALID,1008.93,VALID,0,INVALID,109.315,VALID,0,VALID,24.5905,VALID,220,VALID,0,
2014-06-18, 03:40:04,VALID,1008.94,VALID,0,INVALID,109.346,VALID,0,VALID,24.571,VALID,220,VALID,0,
2014-06-18, 03:41:04,VALID,1008.96,VALID,0,INVALID,109.3,VALID,0,VALID,24.5905,VALID,220,VALID,0,
2014-06-18, 03:42:04,VALID,1008.94,VALID,0,INVALID,109.262,VALID,0,VALID,24.5905,VALID,220,VALID,0,
2014-06-18, 03:43:04,VALID,1008.93,VALID,0,INVALID,109.323,VALID,0,VALID,24.5923,VALID,220,VALID,0,
2014-06-18, 03:44:04,VALID,1008.93,VALID,0,INVALID,109.338,VALID,0,VALID,24.5728,VALID,220,VALID,0,
2014-06-18, 03:45:04,VALID,1008.96,VALID,0,INVALID,109.338,VALID,0,VALID,24.5728,VALID,220,VALID,0,
2014-06-18, 03:46:04,VALID,1008.96,VALID,0,INVALID,109.407,VALID,0,VALID,24.5338,VALID,220,VALID,0,
2014-06-18, 03:47:04,VALID,1008.94,VALID,0,INVALID,109.323,VALID,0,VALID,24.5338,VALID,220,VALID,0,
2014-06-18, 03:48:04,VALID,1008.97,VALID,0,INVALID,109.353,VALID,0,VALID,24.5338,VALID,220,VALID,0,
2014-06-18, 03:49:04,VALID,1008.96,VALID,0,INVALID,109.346,VALID,0,VALID,24.5338,VALID,220,VALID,0,
2014-06-18, 03:50:04,VALID,1008.99,VALID,0,INVALID,109.3,VALID,0,VALID,24.5125,VALID,220,VALID,0,
2014-06-18, 03:51:04,VALID,1008.99,VALID,0,INVALID,109.338,VALID,0,VALID,24.5533,VALID,220,VALID,0,
2014-06-18, 03:52:04,VALID,1009.02,VALID,0,INVALID,109.3,VALID,0,VALID,24.5144,VALID,220,VALID,0,
2014-06-18, 03:53:04,VALID,1009.05,VALID,0,INVALID,109.315,VALID,0,VALID,24.5338,VALID,220,VALID,0,
2014-06-18, 03:54:04,VALID,1009.08,VALID,0,INVALID,109.277,VALID,0,VALID,24.532,VALID,220,VALID,0,
2014-06-18, 03:55:04,VALID,1009.09,VALID,0,INVALID,109.216,VALID,0,VALID,24.5515,VALID,220,VALID,0,
2014-06-18, 03:56:04,VALID,1009.1,VALID,0,INVALID,109.308,VALID,0,VALID,24.532,VALID,220,VALID,0,
2014-06-18, 03:57:04,VALID,1009.08,VALID,0,INVALID,109.346,VALID,0,VALID,24.493,VALID,220,VALID,0,
2014-06-18, 03:58:04,VALID,1009.08,VALID,0,INVALID,109.437,VALID,0,VALID,24.4559,VALID,220,VALID,0,
2014-06-18, 03:59:04,VALID,1009.09,VALID,0,INVALID,109.46,VALID,0,VALID,24.3974,VALID,220,VALID,0,
2014-06-18, 04:00:04,VALID,1009.08,VALID,0,INVALID,109.452,VALID,0,VALID,24.3974,VALID,220,VALID,0,